SAA306 FACT-FAOR

Flight info

Callsign SAA306
Flight time N/A
Altitude 37000
Route KODES1A KODES UQ42 OKLOK UQ52 APLEN DCT EVESI Z41 UNRAG Z2 NIBEX NIBEX1B
Aircraft A320/M-SDE3FGHIRWY/LB1

Departure

Time 2026-05-04 16:20
Airport Cape Town International Airport (FACT)

Arrival

Time N/A
Airport O.R. Tambo International Airport (FAOR)
Time Latitude Longitude Altitude Speed Heading
2026-05-04 16:04 -33.96896 18.59789 165 ft 0 kts 255°
2026-05-04 16:09 -33.96889 18.59821 164 ft 4 kts 257°
2026-05-04 16:10 -33.96878 18.59878 164 ft 4 kts 255°
2026-05-04 16:11 -33.96848 18.59882 164 ft 0 kts 165°
2026-05-04 16:13 -33.96865 18.59888 164 ft 3 kts 165°
2026-05-04 16:13 -33.96934 18.59911 164 ft 7 kts 164°
2026-05-04 16:14 -33.97059 18.59953 164 ft 9 kts 165°
2026-05-04 16:14 -33.97219 18.59992 164 ft 14 kts 165°
2026-05-04 16:15 -33.97521 18.60099 164 ft 14 kts 157°
2026-05-04 16:16 -33.97724 18.60197 164 ft 18 kts 159°
2026-05-04 16:16 -33.98142 18.60374 164 ft 24 kts 160°
2026-05-04 16:17 -33.98481 18.60520 164 ft 28 kts 160°
2026-05-04 16:18 -33.98787 18.60753 157 ft 18 kts 73°
2026-05-04 16:18 -33.98758 18.60868 156 ft 9 kts 60°
2026-05-04 16:19 -33.97911 18.60614 154 ft 119 kts 345°
2026-05-04 16:19 -33.95843 18.59976 704 ft 161 kts 341°
2026-05-04 16:20 -33.92590 18.58786 2201 ft 182 kts 339°
2026-05-04 16:20 -33.90569 18.56668 2753 ft 220 kts 302°
2026-05-04 16:21 -33.86722 18.52804 4738 ft 257 kts 325°
2026-05-04 16:22 -33.83429 18.50975 6489 ft 270 kts 348°
2026-05-04 16:22 -33.77998 18.52978 8965 ft 289 kts 31°
2026-05-04 16:23 -33.72806 18.57192 10586 ft 326 kts 30°
2026-05-04 16:24 -33.64956 18.63521 13075 ft 347 kts 30°
2026-05-04 16:25 -33.60909 18.66786 14400 ft 353 kts 29°
2026-05-04 16:26 -33.51981 18.70905 16898 ft 344 kts 359°
2026-05-04 16:26 -33.44780 18.71786 18808 ft 349 kts 359°
2026-05-04 16:27 -33.39979 18.72388 20074 ft 349 kts 358°
2026-05-04 16:28 -33.32727 18.73286 21956 ft 349 kts 358°
2026-05-04 16:28 -33.25469 18.74184 23770 ft 349 kts 356°
2026-05-04 16:29 -33.15758 18.76291 25427 ft 382 kts 17°
2026-05-04 16:30 -33.09995 18.83774 26557 ft 434 kts 46°
2026-05-04 16:31 -33.06733 18.89882 27265 ft 439 kts 45°
2026-05-04 16:31 -33.01746 18.99148 28311 ft 447 kts 45°
2026-05-04 16:32 -32.96643 19.08560 29304 ft 455 kts 45°
2026-05-04 16:33 -32.93191 19.14930 29942 ft 460 kts 44°
2026-05-04 16:33 -32.89722 19.21339 30584 ft 460 kts 44°
2026-05-04 16:34 -32.86286 19.27669 31335 ft 458 kts 44°
2026-05-04 16:34 -32.84558 19.30843 31739 ft 457 kts 44°
2026-05-04 16:35 -32.79140 19.39977 32963 ft 438 kts 35°
2026-05-04 16:35 -32.73076 19.48080 34091 ft 435 kts 34°
2026-05-04 16:36 -32.71071 19.50753 34439 ft 434 kts 34°
2026-05-04 16:36 -32.67040 19.56116 34937 ft 436 kts 34°
2026-05-04 16:37 -32.60933 19.64227 35014 ft 440 kts 34°
2026-05-04 16:38 -32.52780 19.75062 35012 ft 440 kts 34°
2026-05-04 16:39 -32.42594 19.88550 34988 ft 441 kts 34°
2026-05-04 16:40 -32.34382 19.99370 35025 ft 442 kts 34°
2026-05-04 16:41 -32.24103 20.12890 35047 ft 442 kts 34°
2026-05-04 16:43 -32.13826 20.26338 35042 ft 442 kts 34°
2026-05-04 16:43 -32.07644 20.34422 35046 ft 442 kts 34°
2026-05-04 16:45 -31.95240 20.50553 35015 ft 445 kts 34°
2026-05-04 16:46 -31.84819 20.64082 35024 ft 446 kts 34°
2026-05-04 16:47 -31.76459 20.74879 35027 ft 446 kts 34°
2026-05-04 16:48 -31.68129 20.85615 34995 ft 445 kts 34°
2026-05-04 16:49 -31.59794 20.96328 35003 ft 443 kts 34°
2026-05-04 16:50 -31.51467 21.06990 35010 ft 443 kts 34°
2026-05-04 16:51 -31.45224 21.14966 34979 ft 442 kts 34°
2026-05-04 16:52 -31.36921 21.25545 35004 ft 441 kts 34°
2026-05-04 16:53 -31.30719 21.33442 34971 ft 440 kts 34°
2026-05-04 16:54 -31.23115 21.43090 34987 ft 441 kts 34°
2026-05-04 16:55 -31.10632 21.58860 34994 ft 441 kts 34°
2026-05-04 16:56 -31.00221 21.71983 34997 ft 441 kts 34°
2026-05-04 16:57 -30.93966 21.79844 34932 ft 441 kts 34°
2026-05-04 16:58 -30.85603 21.90307 34967 ft 443 kts 34°
2026-05-04 17:00 -30.73259 22.06487 34983 ft 453 kts 39°
2026-05-04 17:01 -30.63695 22.21031 34945 ft 453 kts 40°
2026-05-04 17:02 -30.62428 22.22953 34939 ft 454 kts 39°
2026-05-04 17:03 -30.58495 22.28886 34955 ft 454 kts 39°
2026-05-04 17:03 -30.52710 22.37631 34972 ft 455 kts 39°
2026-05-04 17:04 -30.44997 22.49253 34972 ft 454 kts 39°
2026-05-04 17:05 -30.37313 22.60808 34997 ft 453 kts 39°
2026-05-04 17:06 -30.31531 22.69471 34999 ft 453 kts 39°
2026-05-04 17:07 -30.26389 22.77155 34978 ft 452 kts 39°
2026-05-04 17:07 -30.21903 22.83850 34971 ft 452 kts 39°
2026-05-04 17:08 -30.16128 22.92460 34988 ft 451 kts 39°
2026-05-04 17:09 -30.12272 22.98192 34994 ft 451 kts 39°
2026-05-04 17:09 -30.08418 23.03922 34995 ft 451 kts 39°
2026-05-04 17:10 -29.98793 23.18189 34979 ft 451 kts 39°
2026-05-04 17:11 -29.94924 23.23894 34998 ft 451 kts 39°
2026-05-04 17:12 -29.89131 23.32446 34979 ft 451 kts 39°
2026-05-04 17:13 -29.79454 23.46687 34973 ft 453 kts 39°
2026-05-04 17:14 -29.71689 23.58079 35012 ft 453 kts 39°
2026-05-04 17:15 -29.65844 23.66631 35019 ft 453 kts 39°
2026-05-04 17:16 -29.58056 23.77984 34993 ft 453 kts 39°
2026-05-04 17:17 -29.50216 23.89386 34991 ft 456 kts 39°
2026-05-04 17:18 -29.42322 24.00856 35026 ft 458 kts 39°
2026-05-04 17:19 -29.34415 24.12298 35001 ft 459 kts 39°
2026-05-04 17:20 -29.26447 24.23808 35020 ft 461 kts 39°
2026-05-04 17:20 -29.20483 24.32389 35036 ft 461 kts 39°
2026-05-04 17:21 -29.12464 24.43899 35015 ft 466 kts 39°
2026-05-04 17:22 -29.08415 24.49691 35021 ft 467 kts 39°
2026-05-04 17:23 -29.00296 24.61312 35042 ft 467 kts 39°
2026-05-04 17:24 -28.94209 24.70011 35056 ft 467 kts 39°
2026-05-04 17:25 -28.86098 24.81564 35072 ft 467 kts 39°
2026-05-04 17:26 -28.77945 24.93124 35068 ft 467 kts 39°
2026-05-04 17:27 -28.67745 25.07550 35053 ft 467 kts 39°
2026-05-04 17:28 -28.59855 25.19417 35081 ft 488 kts 53°
2026-05-04 17:29 -28.56507 25.30643 35087 ft 502 kts 63°
2026-05-04 17:29 -28.53360 25.41962 35093 ft 501 kts 63°
2026-05-04 17:31 -28.48051 25.60785 35119 ft 501 kts 63°
2026-05-04 17:32 -28.42736 25.79592 35134 ft 499 kts 63°
2026-05-04 17:33 -28.38451 25.94604 35149 ft 499 kts 63°
2026-05-04 17:34 -28.33844 26.04725 35140 ft 464 kts 37°
2026-05-04 17:34 -28.31611 26.07320 35124 ft 457 kts 33°
2026-05-04 17:35 -28.20321 26.20033 35143 ft 460 kts 34°
2026-05-04 17:36 -28.15787 26.25149 35155 ft 460 kts 34°
2026-05-04 17:36 -28.11238 26.30253 35141 ft 460 kts 34°
2026-05-04 17:37 -28.06666 26.35381 35148 ft 461 kts 34°
2026-05-04 17:37 -28.02104 26.40497 35162 ft 462 kts 34°
2026-05-04 17:38 -27.97554 26.45599 35141 ft 462 kts 34°
2026-05-04 17:38 -27.92982 26.50726 35161 ft 462 kts 34°
2026-05-04 17:39 -27.86143 26.58367 35156 ft 463 kts 34°
2026-05-04 17:39 -27.81562 26.63494 35167 ft 464 kts 34°
2026-05-04 17:40 -27.76964 26.68616 35174 ft 464 kts 34°
2026-05-04 17:40 -27.73131 26.72868 35179 ft 465 kts 34°
2026-05-04 17:41 -27.68516 26.77995 35190 ft 465 kts 34°
2026-05-04 17:41 -27.63910 26.83124 35195 ft 465 kts 34°
2026-05-04 17:42 -27.59285 26.88264 35172 ft 465 kts 35°
2026-05-04 17:42 -27.54664 26.93381 35175 ft 466 kts 35°